MAA101 MMGL-MMSM

Flight info

Callsign MAA101
Flight time 0h 44m
Altitude 33000
Route KELVA1B KELVA DCT ERBOS UJ14 QET UT162 TOREO TOREO1B
Aircraft B763/H-SDE3FGHIM3RWXY/LB1

Departure

Time 2026-05-06 00:34
Airport Guadalajara International Airport (MMGL)

Arrival

Time 2026-05-06 01:18
Airport Felipe Ángeles International Airport (MMSM)
Time Latitude Longitude Altitude Speed Heading
2026-05-06 00:08 20.52296 -103.29709 5037 ft 0 kts 19°
2026-05-06 00:22 20.52292 -103.29710 5037 ft 2 kts 19°
2026-05-06 00:22 20.52277 -103.29716 5027 ft 2 kts 19°
2026-05-06 00:22 20.52261 -103.29722 5028 ft 2 kts 19°
2026-05-06 00:22 20.52246 -103.29728 5027 ft 2 kts 19°
2026-05-06 00:23 20.52233 -103.29738 5030 ft 2 kts 55°
2026-05-06 00:23 20.52236 -103.29753 5027 ft 0 kts 121°
2026-05-06 00:26 20.52234 -103.29749 5027 ft 2 kts 121°
2026-05-06 00:26 20.52217 -103.29720 5028 ft 6 kts 117°
2026-05-06 00:26 20.52198 -103.29674 5028 ft 8 kts 111°
2026-05-06 00:27 20.52176 -103.29609 5029 ft 11 kts 107°
2026-05-06 00:27 20.52152 -103.29534 5032 ft 10 kts 109°
2026-05-06 00:27 20.52132 -103.29477 5029 ft 6 kts 123°
2026-05-06 00:27 20.52118 -103.29466 5033 ft 2 kts 155°
2026-05-06 00:28 20.52094 -103.29462 5029 ft 3 kts 187°
2026-05-06 00:28 20.52055 -103.29473 5034 ft 7 kts 202°
2026-05-06 00:28 20.51986 -103.29504 5034 ft 13 kts 202°
2026-05-06 00:28 20.51941 -103.29502 5034 ft 7 kts 149°
2026-05-06 00:29 20.51882 -103.29435 5034 ft 20 kts 127°
2026-05-06 00:29 20.51787 -103.29302 5034 ft 21 kts 127°
2026-05-06 00:29 20.51707 -103.29191 5035 ft 14 kts 133°
2026-05-06 00:29 20.51670 -103.29168 5035 ft 2 kts 168°
2026-05-06 00:30 20.51645 -103.29168 5032 ft 5 kts 188°
2026-05-06 00:30 20.51591 -103.29190 5032 ft 15 kts 204°
2026-05-06 00:30 20.51523 -103.29222 5031 ft 0 kts 204°
2026-05-06 00:31 20.51503 -103.29231 5032 ft 8 kts 204°
2026-05-06 00:31 20.51432 -103.29278 5035 ft 12 kts 245°
2026-05-06 00:32 20.51434 -103.29327 5027 ft 0 kts 292°
2026-05-06 00:33 20.51518 -103.29536 5028 ft 64 kts 294°
2026-05-06 00:33 20.51788 -103.30175 5031 ft 124 kts 293°
2026-05-06 00:33 20.52219 -103.31188 5043 ft 174 kts 295°
2026-05-06 00:34 20.52749 -103.32435 5632 ft 190 kts 294°
2026-05-06 00:34 20.53314 -103.33781 5964 ft 214 kts 294°
2026-05-06 00:34 20.54020 -103.35319 6014 ft 243 kts 297°
2026-05-06 00:34 20.54772 -103.36939 6746 ft 240 kts 297°
2026-05-06 00:35 20.55497 -103.38554 7535 ft 243 kts 296°
2026-05-06 00:35 20.56239 -103.40185 8276 ft 245 kts 295°
2026-05-06 00:35 20.57007 -103.41826 8977 ft 249 kts 299°
2026-05-06 00:35 20.58215 -103.43152 9616 ft 259 kts 327°
2026-05-06 00:36 20.60016 -103.43713 10004 ft 284 kts 357°
2026-05-06 00:36 20.61974 -103.43273 10726 ft 296 kts 25°
2026-05-06 00:36 20.63617 -103.41924 11492 ft 303 kts 51°
2026-05-06 00:36 20.64594 -103.39934 12327 ft 305 kts 78°
2026-05-06 00:37 20.64713 -103.37695 13205 ft 303 kts 101°
2026-05-06 00:37 20.64476 -103.35447 14040 ft 308 kts 98°
2026-05-06 00:37 20.64278 -103.33104 14492 ft 325 kts 98°
2026-05-06 00:37 20.64086 -103.30653 14964 ft 338 kts 97°
2026-05-06 00:38 20.63879 -103.28138 15610 ft 343 kts 99°
2026-05-06 00:38 20.63502 -103.25639 16307 ft 345 kts 102°
2026-05-06 00:38 20.63113 -103.23085 17031 ft 349 kts 102°
2026-05-06 00:38 20.62738 -103.20527 17734 ft 352 kts 101°
2026-05-06 00:39 20.62361 -103.17905 18441 ft 354 kts 101°
2026-05-06 00:39 20.61989 -103.15293 19021 ft 357 kts 101°
2026-05-06 00:39 20.61619 -103.12646 19402 ft 368 kts 101°
2026-05-06 00:39 20.61232 -103.09876 19459 ft 387 kts 101°
2026-05-06 00:40 20.60821 -103.06974 19532 ft 403 kts 101°
2026-05-06 00:40 20.60392 -103.03964 19619 ft 417 kts 101°
2026-05-06 00:40 20.59950 -103.00875 19904 ft 423 kts 101°
2026-05-06 00:40 20.59509 -102.97765 20317 ft 425 kts 101°
2026-05-06 00:41 20.59071 -102.94642 20750 ft 427 kts 101°
2026-05-06 00:41 20.58635 -102.91490 21160 ft 430 kts 101°
2026-05-06 00:41 20.58205 -102.88324 21572 ft 432 kts 101°
2026-05-06 00:41 20.57792 -102.85147 21990 ft 435 kts 100°
2026-05-06 00:42 20.57368 -102.81946 22365 ft 436 kts 104°
2026-05-06 00:42 20.56769 -102.78832 22628 ft 423 kts 105°
2026-05-06 00:42 20.56267 -102.75711 22793 ft 431 kts 101°
2026-05-06 00:42 20.55864 -102.72543 23285 ft 431 kts 102°
2026-05-06 00:43 20.55422 -102.69372 23635 ft 434 kts 102°
2026-05-06 00:43 20.54972 -102.66177 23949 ft 437 kts 102°
2026-05-06 00:43 20.54527 -102.62960 24263 ft 440 kts 102°
2026-05-06 00:43 20.54224 -102.60777 24463 ft 442 kts 102°
2026-05-06 00:44 20.53768 -102.57518 24756 ft 444 kts 102°
2026-05-06 00:44 20.53310 -102.54248 25057 ft 447 kts 102°
2026-05-06 00:44 20.52850 -102.50957 25355 ft 450 kts 102°
2026-05-06 00:44 20.52385 -102.47652 25643 ft 452 kts 102°
2026-05-06 00:45 20.51918 -102.44324 25900 ft 456 kts 102°
2026-05-06 00:45 20.51447 -102.40970 26200 ft 458 kts 101°
2026-05-06 00:45 20.50972 -102.37602 26496 ft 460 kts 101°
2026-05-06 00:45 20.50694 -102.34186 26711 ft 467 kts 90°
2026-05-06 00:46 20.51005 -102.30716 26982 ft 471 kts 85°
2026-05-06 00:46 20.51564 -102.27261 27212 ft 476 kts 77°
2026-05-06 00:46 20.52506 -102.23907 27452 ft 480 kts 75°
2026-05-06 00:46 20.53438 -102.20482 27679 ft 482 kts 76°
2026-05-06 00:47 20.54373 -102.17041 27946 ft 484 kts 76°
2026-05-06 00:47 20.55321 -102.13586 28178 ft 486 kts 76°
2026-05-06 00:47 20.56134 -102.10083 28395 ft 487 kts 82°
2026-05-06 00:47 20.56691 -102.06516 28623 ft 488 kts 84°
2026-05-06 00:48 20.56915 -102.02911 28828 ft 487 kts 91°
2026-05-06 00:48 20.57008 -101.99286 29045 ft 490 kts 90°
2026-05-06 00:48 20.57131 -101.95650 29251 ft 492 kts 90°
2026-05-06 00:48 20.57241 -101.91994 29458 ft 494 kts 90°
2026-05-06 00:49 20.57350 -101.88328 29671 ft 496 kts 90°
2026-05-06 00:49 20.57463 -101.84635 29855 ft 498 kts 90°
2026-05-06 00:49 20.57576 -101.80935 30026 ft 500 kts 90°
2026-05-06 00:49 20.57687 -101.77225 30199 ft 501 kts 90°
2026-05-06 00:50 20.57798 -101.73504 30368 ft 502 kts 90°
2026-05-06 00:50 20.57909 -101.69774 30530 ft 504 kts 90°
2026-05-06 00:50 20.58018 -101.66036 30675 ft 505 kts 90°
2026-05-06 00:50 20.58129 -101.62288 30861 ft 506 kts 90°
2026-05-06 00:51 20.58238 -101.58532 31012 ft 507 kts 90°
2026-05-06 00:51 20.58455 -101.50961 31234 ft 511 kts 90°
2026-05-06 00:51 20.58562 -101.47173 31473 ft 510 kts 90°
2026-05-06 00:52 20.58669 -101.43393 31726 ft 509 kts 90°
2026-05-06 00:52 20.58774 -101.39620 31948 ft 508 kts 90°
2026-05-06 00:52 20.58878 -101.35852 32183 ft 508 kts 90°
2026-05-06 00:52 20.58980 -101.32133 32408 ft 507 kts 90°
2026-05-06 00:53 20.59081 -101.28497 32616 ft 504 kts 90°
2026-05-06 00:53 20.59182 -101.24848 32707 ft 480 kts 90°
2026-05-06 00:53 20.59276 -101.21371 32742 ft 458 kts 90°
2026-05-06 00:54 20.59452 -101.14689 32836 ft 458 kts 90°
2026-05-06 00:54 20.59637 -101.07784 32868 ft 473 kts 90°
2026-05-06 00:55 20.59822 -101.00663 32859 ft 486 kts 90°
2026-05-06 00:55 20.60010 -100.93362 32854 ft 498 kts 90°
2026-05-06 00:56 20.60199 -100.85904 32849 ft 507 kts 90°
2026-05-06 00:56 20.60390 -100.78263 32850 ft 515 kts 90°
2026-05-06 00:57 20.60577 -100.70619 32855 ft 522 kts 90°
2026-05-06 00:57 20.60765 -100.62831 32856 ft 528 kts 90°
2026-05-06 00:58 20.60951 -100.54958 32873 ft 532 kts 90°
2026-05-06 00:58 20.61134 -100.47042 32971 ft 531 kts 90°
2026-05-06 00:59 20.61312 -100.39187 33064 ft 530 kts 90°
2026-05-06 00:59 20.61487 -100.31313 33158 ft 530 kts 90°
2026-05-06 01:00 20.61656 -100.23446 33188 ft 530 kts 92°
2026-05-06 01:00 20.61282 -100.19569 33209 ft 524 kts 107°
2026-05-06 01:00 20.60071 -100.15925 33220 ft 520 kts 120°
2026-05-06 01:01 20.56514 -100.09206 33207 ft 521 kts 120°
2026-05-06 01:01 20.54800 -100.05786 32626 ft 528 kts 121°
2026-05-06 01:01 20.53022 -100.02341 31817 ft 530 kts 121°
2026-05-06 01:01 20.51264 -99.98899 31034 ft 525 kts 121°
2026-05-06 01:02 20.49528 -99.95508 30449 ft 515 kts 121°
2026-05-06 01:02 20.47828 -99.92199 30187 ft 503 kts 121°
2026-05-06 01:02 20.46145 -99.88926 30040 ft 505 kts 121°
2026-05-06 01:03 20.42742 -99.82303 29932 ft 513 kts 121°
2026-05-06 01:03 20.39320 -99.75657 29908 ft 510 kts 121°
2026-05-06 01:04 20.35895 -99.69011 29905 ft 511 kts 121°
2026-05-06 01:04 20.34226 -99.65763 29889 ft 487 kts 121°
2026-05-06 01:04 20.32560 -99.62741 29872 ft 460 kts 127°
2026-05-06 01:04 20.30829 -99.60142 29878 ft 439 kts 127°
2026-05-06 01:05 20.29121 -99.57502 29891 ft 429 kts 127°
2026-05-06 01:05 20.25677 -99.52210 29945 ft 443 kts 127°
2026-05-06 01:06 20.22128 -99.46753 29940 ft 449 kts 126°
2026-05-06 01:06 20.20660 -99.43830 29819 ft 451 kts 112°
2026-05-06 01:06 20.19961 -99.40530 28900 ft 463 kts 94°
2026-05-06 01:06 20.20038 -99.37104 28065 ft 459 kts 92°
2026-05-06 01:07 20.19637 -99.33787 27217 ft 435 kts 110°
2026-05-06 01:07 20.18550 -99.31090 25836 ft 369 kts 127°
2026-05-06 01:07 20.16910 -99.29154 23944 ft 344 kts 146°
2026-05-06 01:07 20.14825 -99.28007 21388 ft 335 kts 162°
2026-05-06 01:08 20.12610 -99.27323 19119 ft 326 kts 166°
2026-05-06 01:08 20.10449 -99.26771 16818 ft 314 kts 167°
2026-05-06 01:08 20.08407 -99.26303 14597 ft 304 kts 170°
2026-05-06 01:08 20.06350 -99.25924 12758 ft 291 kts 171°
2026-05-06 01:09 20.04457 -99.25620 11539 ft 299 kts 172°
2026-05-06 01:09 20.02515 -99.25334 11769 ft 267 kts 172°
2026-05-06 01:09 20.00679 -99.25071 12106 ft 274 kts 172°
2026-05-06 01:09 19.98731 -99.24794 11787 ft 286 kts 172°
2026-05-06 01:10 19.96765 -99.24519 11446 ft 282 kts 172°
2026-05-06 01:10 19.94842 -99.24252 11099 ft 277 kts 172°
2026-05-06 01:10 19.92949 -99.23991 10934 ft 260 kts 172°
2026-05-06 01:10 19.91239 -99.23756 10842 ft 246 kts 172°
2026-05-06 01:11 19.89541 -99.23526 10816 ft 247 kts 172°
2026-05-06 01:11 19.87827 -99.23294 10830 ft 250 kts 172°
2026-05-06 01:11 19.86093 -99.23057 10848 ft 251 kts 172°
2026-05-06 01:11 19.84367 -99.22820 10853 ft 245 kts 173°
2026-05-06 01:12 19.82749 -99.22598 10806 ft 225 kts 172°
2026-05-06 01:12 19.81216 -99.22389 10820 ft 222 kts 172°
2026-05-06 01:12 19.79658 -99.22178 10688 ft 233 kts 172°
2026-05-06 01:12 19.78076 -99.21964 10600 ft 224 kts 173°
2026-05-06 01:13 19.76562 -99.21758 10458 ft 216 kts 172°
2026-05-06 01:13 19.75221 -99.21575 10383 ft 206 kts 172°
2026-05-06 01:13 19.73771 -99.21378 10185 ft 217 kts 172°
2026-05-06 01:13 19.72279 -99.21179 9875 ft 213 kts 172°
2026-05-06 01:14 19.69416 -99.20802 9320 ft 201 kts 173°
2026-05-06 01:14 19.68216 -99.20607 9215 ft 203 kts 162°
2026-05-06 01:14 19.67094 -99.19747 9203 ft 197 kts 123°
2026-05-06 01:15 19.66543 -99.18454 9218 ft 193 kts 111°
2026-05-06 01:15 19.66104 -99.17099 9222 ft 195 kts 108°
2026-05-06 01:15 19.65687 -99.15721 9227 ft 197 kts 107°
2026-05-06 01:15 19.65380 -99.14308 9200 ft 199 kts 89°
2026-05-06 01:16 19.65852 -99.12949 9263 ft 201 kts 55°
2026-05-06 01:16 19.66815 -99.11864 9302 ft 206 kts 37°
2026-05-06 01:16 19.67900 -99.10884 9305 ft 204 kts 48°
2026-05-06 01:16 19.68798 -99.09716 9124 ft 206 kts 53°
2026-05-06 01:17 19.69638 -99.08557 8999 ft 193 kts 53°
2026-05-06 01:17 19.70451 -99.07515 8850 ft 166 kts 50°
2026-05-06 01:17 19.71195 -99.06662 8632 ft 151 kts 49°
2026-05-06 01:17 19.71923 -99.05875 8202 ft 144 kts 51°
2026-05-06 01:18 19.72564 -99.05047 7936 ft 147 kts 53°
2026-05-06 01:18 19.73202 -99.04227 7514 ft 136 kts 51°
2026-05-06 01:18 19.73760 -99.03528 7384 ft 103 kts 49°
2026-05-06 01:18 19.74057 -99.03164 7383 ft 31 kts 48°
2026-05-06 01:19 19.74147 -99.03052 7383 ft 32 kts 49°
2026-05-06 01:19 19.74379 -99.02770 7384 ft 67 kts 49°
2026-05-06 01:19 19.74750 -99.02320 7383 ft 92 kts 49°
2026-05-06 01:19 19.74933 -99.01916 7384 ft 24 kts 83°
2026-05-06 01:20 19.74947 -99.01846 7385 ft 0 kts 68°